RH
38 37 38 47 50 42 44 43 68 52 48 37 36 34 32 29 27 24 22 22 22 22 24 26 34 40 56 60 67 67 58 53 51 50 51 56 60 62 64 69 74 68 71 70
57 48 53 64 51 42 39 38 38 44 53 32 28 26 30 29 27 26 23 23 21 20 23 27 33 41 59 68 68 64 52 52 47 48 55 66 64 73 70 80 83 76 77 76
65 49 51 72 95 52 40 36 38 52 48 30 30 32 34 32 28 27 25 24 21 21 26 28 31 42 60 70 65 64 53 50 46 49 58 73 71 66 74 78 79 77 73 71
71 58 81 71 48 40 41 36 36 41 43 41 45 34 34 30 29 27 26 22 22 22 26 27 29 38 46 67 77 65 55 50 53 57 63 74 76 71 71 82 84 80 81 74
75 71 74 57 42 49 43 39 36 39 40 42 36 38 40 30 26 26 24 21 21 21 25 26 28 33 38 52 78 77 63 60 55 64 70 90 83 93 83 81 79 74 86 88
61 55 92 61 36 36 35 50 34 39 42 47 44 38 36 28 24 25 21 21 22 22 23 27 28 30 36 40 72 92 87 75 66 64 71 91 94 96 83 80 76 67 73 69
74 68 68 46 40 36 81 65 36 39 44 44 47 37 32 24 24 24 23 24 26 26 26 29 29 29 32 34 53 82 90 80 73 67 75 83 88 93 87 78 76 75 72 82
63 70 90 40 40 66 43 37 38 40 42 39 34 30 26 25 29 28 29 29 29 32 32 30 31 33 32 33 37 75 88 84 71 70 73 78 88 86 95 93 86 70 72 77
63 70 49 44 45 36 39 41 44 46 29 30 31 29 28 30 34 35 35 36 39 39 39 38 36 36 39 36 32 77 87 84 74 67 68 71 90 85 99 97 95 90 73 86
53 50 46 42 37 40 37 41 31 26 27 28 33 32 33 36 39 44 49 54 52 47 52 54 50 42 42 37 30 59 84 94 86 76 78 72 73 78 98 98 98 89 87 89
44 41 42 39 43 42 38 28 27 28 30 32 32 34 36 44 58 61 62 63 61 67 72 74 67 62 55 42 31 35 79 94 97 94 84 78 79 89 94 100 100 99 99 100
54 47 64 52 42 35 34 34 34 33 34 36 38 41 50 57 58 62 67 68 70 74 81 85 84 85 84 64 38 36 48 90 97 96 94 82 87 96 99 99 99 98 98 100
51 43 47 44 41 34 36 37 37 40 39 41 43 44 43 48 59 72 67 70 75 82 85 87 88 89 88 81 56 40 40 63 96 98 96 95 88 92 97 98 99 99 98 98
40 45 51 40 43 39 39 38 44 41 43 39 33 36 44 45 46 47 51 51 56 65 70 72 77 86 87 88 71 53 47 76 88 97 97 97 96 95 93 100 99 100 99 99
40 40 38 40 41 43 41 41 44 39 32 33 35 39 42 47 51 52 50 51 53 62 68 67 71 76 77 86 87 86 59 62 63 93 97 98 97 95 95 97 99 99 98 98
41 42 44 48 50 45 43 40 35 32 35 40 44 46 49 53 55 51 51 52 59 63 66 72 74 75 71 74 84 88 94 95 80 62 89 97 97 96 94 96 97 98 97 98
53 53 51 55 50 44 37 31 31 38 42 46 48 49 50 47 46 46 44 46 46 52 55 64 75 67 69 77 76 82 88 91 98 85 80 82 87 99 97 97 97 98 98 99
41 43 46 50 46 40 38 41 44 45 46 47 49 48 52 51 51 48 47 46 45 48 53 53 61 63 66 72 77 76 78 81 84 93 96 96 94 93 93 93 98 97 98 98
42 47 50 41 36 41 46 47 44 40 41 44 47 56 66 61 49 44 42 50 57 57 58 53 74 59 58 75 82 75 74 76 83 84 87 91 94 97 97 97 96 97 97 97
48 48 43 38 40 45 46 39 37 40 40 39 43 45 44 68 64 42 37 47 55 62 53 54 50 52 54 68 82 72 76 75 79 87 93 94 94 96 95 97 97 97 98 97
51 44 42 47 48 45 39 35 37 41 47 52 48 63 45 43 50 47 41 41 52 62 54 61 56 59 55 72 67 72 76 78 83 82 89 92 97 96 96 97 97 98 98 98
42 45 48 48 41 37 37 39 40 42 44 62 98 100 65 38 37 38 48 53 50 85 55 49 61 82 77 89 73 80 73 71 76 80 86 86 87 96 97 97 98 98 98 98
44 45 42 41 37 39 42 42 40 37 39 44 51 41 42 46 42 42 44 49 50 64 52 59 86 93 94 78 78 79 75 76 79 82 80 84 89 93 86 90 94 97 98 97
44 42 40 36 36 38 41 39 36 38 40 41 50 46 39 38 40 40 41 66 78 82 72 76 85 92 89 80 82 84 81 80 84 88 87 88 94 92 89 92 89 90 94 97
40 34 33 34 34 33 35 34 34 34 36 38 40 41 41 38 44 42 45 49 78 62 60 87 84 88 82 81 81 81 80 79 80 81 80 81 84 87 88 87 93 95 94 95
37 34 33 31 30 28 28 27 27 27 26 32 37 40 42 41 42 42 48 62 53 68 72 80 81 79 76 74 73 72 67 66 69 74 80 78 80 79 88 86 92 94 97 96
36 45 32 30 26 24 22 23 28 30 29 30 36 37 41 46 49 48 67 57 61 65 79 82 77 76 74 72 69 64 64 64 73 71 74 79 80 97 96 96 99 99 96 95
Wind_Speed
6 3 4 7 1 4 5 7 3 8 8 6 2 3 6 7 9 10 11 12 12 12 11 12 12 11 11 12 9 9 9 11 10 10 12 11 12 11 13 10 12 11 10 11
6 11 12 12 8 9 7 8 12 14 6 2 2 3 6 9 10 12 12 12 13 13 13 12 13 11 10 10 10 10 11 12 10 10 11 12 11 10 11 9 10 12 11 10
4 9 13 9 6 4 7 10 8 8 3 3 4 9 9 9 11 11 12 12 13 13 12 12 13 10 10 10 11 10 11 12 12 10 11 9 11 12 11 11 10 13 10 9
4 5 2 2 0 3 8 9 11 9 7 9 11 4 7 9 11 11 11 12 12 11 11 12 12 10 11 9 12 11 13 11 13 12 11 11 10 11 10 10 8 12 9 9
1 8 6 2 4 2 2 4 10 5 6 10 11 3 7 10 11 10 10 9 10 10 11 12 12 11 10 11 10 14 13 13 13 11 11 10 12 11 9 8 10 11 9 7
2 4 2 5 6 1 5 4 8 5 8 10 13 5 11 12 9 9 8 9 11 11 11 12 13 13 12 11 10 11 13 13 13 10 11 9 10 10 10 7 9 9 9 7
2 4 3 4 4 3 4 5 4 5 6 6 5 7 8 8 8 9 9 11 12 11 11 12 13 14 15 15 10 9 11 13 12 10 9 9 10 8 9 10 9 9 9 6
3 3 2 7 5 1 6 4 4 5 6 7 7 7 7 8 10 10 12 12 13 12 12 13 14 13 15 16 12 9 10 11 12 11 7 7 10 10 11 11 9 9 9 5
4 3 5 6 2 3 5 4 4 4 8 8 7 8 8 9 10 10 13 13 15 14 13 14 15 15 15 15 15 8 11 11 11 11 9 8 9 9 6 7 8 7 7 6
5 7 7 5 4 5 5 6 6 9 9 8 7 9 9 9 10 13 15 15 14 14 16 16 16 16 16 16 15 10 11 11 12 10 10 8 8 6 5 5 6 7 8 9
8 10 8 8 5 2 3 6 7 9 9 10 9 10 9 12 14 12 12 12 12 13 13 14 15 17 18 16 15 13 9 10 8 9 10 8 8 5 5 4 4 5 5 5
4 10 4 8 6 4 9 9 9 9 8 10 11 11 15 11 10 10 11 11 11 13 13 14 14 15 16 18 15 14 11 8 7 7 7 8 6 7 6 5 8 9 6 5
8 9 11 9 7 6 9 10 10 10 10 10 12 12 11 10 11 8 9 10 11 12 12 12 12 13 15 17 17 13 12 10 7 7 7 8 8 5 6 6 6 7 10 8
11 14 10 10 8 7 8 9 8 11 11 11 11 11 12 10 8 11 11 11 12 13 13 14 14 13 14 15 17 16 13 7 6 8 7 7 8 8 6 3 6 6 5 7
9 3 10 10 9 7 7 8 9 10 11 11 11 11 10 11 11 12 12 13 12 13 14 15 15 16 13 13 13 15 13 11 10 6 8 7 7 7 8 8 6 6 6 6
11 11 9 8 8 7 9 11 11 11 11 10 10 10 11 11 11 11 11 11 12 13 14 15 15 14 15 14 11 10 10 11 13 9 5 6 8 8 9 8 7 6 6 7
12 9 10 10 8 11 11 11 11 10 10 10 10 10 10 9 10 11 12 11 10 12 13 14 15 13 14 14 13 8 7 8 12 9 10 10 6 5 7 7 7 7 7 7
5 10 11 11 12 12 12 11 10 10 10 10 10 9 9 9 10 10 11 11 11 11 14 14 13 12 14 15 12 9 9 9 8 8 8 9 9 8 9 8 6 7 7 7
11 15 14 14 13 12 10 10 9 9 8 8 8 9 9 9 10 9 9 11 13 13 14 15 14 11 14 13 9 9 9 10 10 9 9 9 9 9 9 9 9 8 8 7
16 15 16 16 13 12 11 9 9 9 8 7 7 7 8 6 9 10 9 12 12 9 12 14 15 14 15 13 10 8 9 10 10 9 9 9 10 9 9 10 10 9 9 9
17 17 17 15 13 11 9 9 9 9 9 9 8 7 8 7 7 10 11 8 13 12 9 10 13 12 11 10 10 9 9 8 9 9 9 9 9 9 9 10 9 9 9 9
17 16 15 14 12 11 10 9 9 8 8 6 1 4 2 9 8 8 11 10 8 7 10 10 11 13 11 11 9 8 11 11 9 8 8 10 10 9 9 10 10 9 9 9
15 16 15 13 12 12 10 8 7 7 7 7 6 7 7 6 6 7 7 10 9 10 8 10 11 14 14 9 9 10 10 10 10 8 9 9 9 9 10 10 10 9 9 10
17 15 13 13 13 11 10 8 7 7 7 7 7 7 7 5 6 6 5 5 7 8 9 10 11 12 9 9 9 9 10 10 9 8 8 9 7 8 7 8 9 9 9 10
16 15 14 14 12 9 10 8 8 8 7 7 6 5 6 6 6 5 6 6 6 8 9 10 12 10 9 9 9 9 9 9 10 9 10 9 10 10 9 9 8 8 8 8
17 12 11 13 9 9 8 8 6 6 6 6 5 4 4 4 4 4 5 6 8 7 7 7 7 7 8 8 8 9 9 8 10 10 9 10 11 11 9 9 9 8 8 8
13 11 11 10 8 8 7 7 7 6 4 5 5 4 4 3 4 4 5 6 6 7 7 7 7 7 8 8 9 9 9 9 8 9 9 8 9 7 8 9 8 8 7 8
Wind_Direction
293 324 7 49 359 238 179 247 165 156 114 87 60 330 22 22 359 357 2 357 356 354 350 349 350 2 350 348 348 341 329 314 335 345 347 345 333 336 325 332 312 306 300 293
70 97 101 88 61 98 108 120 125 97 65 3 24 15 36 13 1 358 358 355 353 351 350 350 349 13 348 342 344 329 329 325 333 346 354 334 340 326 324 325 310 303 302 305
132 156 142 78 355 47 81 56 101 91 187 326 16 14 45 5 3 356 356 354 352 347 349 348 353 26 355 337 331 331 326 333 334 342 344 329 330 332 327 319 314 312 318 322
135 226 73 109 38 88 75 54 58 67 33 3 351 347 60 18 7 359 355 351 347 347 349 352 354 16 0 343 336 324 328 347 337 348 339 335 330 330 333 316 328 313 323 337
97 67 122 140 178 50 43 87 80 43 23 359 319 45 74 24 21 358 352 347 344 350 352 354 355 358 356 4 337 329 338 339 336 338 337 346 335 326 326 326 320 321 338 337
342 99 104 144 108 0 305 152 59 359 11 340 335 348 29 10 13 353 351 356 351 353 356 359 355 349 346 3 10 334 330 327 326 350 346 345 330 324 326 324 315 327 341 350
108 90 144 185 115 264 274 68 73 344 337 333 41 18 353 358 4 3 -0 7 352 1 3 4 356 355 353 357 17 353 330 327 328 354 343 346 331 334 325 325 335 351 337 344
261 113 174 164 182 324 51 102 353 12 339 28 20 12 5 11 8 8 4 7 3 1 3 8 358 358 357 1 22 15 349 338 338 348 339 350 338 350 346 342 349 355 4 8
355 53 100 119 142 98 39 357 24 349 24 16 24 16 17 13 13 6 12 9 5 0 2 10 1 1 357 359 360 25 5 346 345 338 353 359 347 353 347 352 353 348 3 4
169 138 146 144 129 64 1 344 14 33 31 29 28 19 16 17 11 14 18 12 358 358 9 3 357 359 357 352 353 41 21 353 343 344 345 3 3 358 9 358 355 6 6 7
127 141 128 109 42 359 132 77 55 51 36 24 18 31 6 32 23 10 9 7 10 11 4 0 355 358 354 345 356 8 27 3 350 344 343 348 2 358 16 12 5 350 359 348
124 108 73 89 91 60 68 51 37 34 52 46 22 27 32 30 25 16 16 15 13 12 7 359 356 355 351 340 351 3 22 15 356 345 345 345 360 352 20 15 34 26 357 357
133 98 100 107 111 83 64 53 56 51 40 36 39 38 40 43 41 34 27 22 19 16 8 2 358 353 351 348 337 11 13 20 14 358 352 344 342 350 355 355 337 13 15 30
120 129 135 153 102 78 74 81 75 63 51 49 47 54 56 55 48 44 36 34 31 19 14 10 5 1 358 351 358 357 19 1 66 17 358 350 346 344 349 28 1 354 337 356
144 98 105 102 91 76 76 79 77 68 64 63 60 55 48 43 40 31 28 27 28 24 17 12 10 2 8 359 2 7 12 10 359 58 12 358 356 357 359 1 4 360 357 357
128 113 113 109 88 91 88 78 79 78 74 65 58 48 45 40 36 29 28 27 24 22 18 13 9 356 3 3 12 9 6 1 350 24 39 20 9 6 7 5 4 2 2 359
141 140 126 100 102 88 84 84 85 75 67 57 49 48 42 38 40 31 25 16 29 31 24 20 4 1 8 6 1 12 10 14 3 3 8 7 7 11 7 5 4 4 3 358
121 131 105 128 112 108 102 93 84 75 66 60 49 46 44 36 28 25 21 18 10 26 18 17 2 0 16 12 1 6 15 9 16 16 7 4 1 2 3 2 7 5 1 355
119 117 125 117 115 113 104 95 86 78 67 63 67 60 41 20 8 14 33 20 21 13 3 9 337 5 25 11 354 13 14 19 12 11 8 8 9 9 8 4 1 360 357 356
121 119 119 118 116 111 106 96 89 75 63 63 61 44 54 54 15 14 17 48 32 8 348 5 5 10 24 7 6 12 16 16 16 13 7 6 5 3 6 6 3 4 3 360
127 129 124 124 117 112 104 102 94 80 64 40 47 39 24 46 53 27 20 31 27 354 344 18 19 8 17 356 15 10 15 21 12 9 7 6 -0 2 3 2 3 1 360 360
135 134 131 131 128 119 111 101 94 90 83 73 311 302 2 36 26 76 59 21 17 356 340 22 17 351 341 332 16 8 15 17 15 10 10 9 6 2 -0 359 0 358 358 357
138 139 139 138 134 124 116 108 102 93 83 72 52 49 57 55 26 25 25 29 10 358 359 26 2 346 340 16 14 15 16 17 14 8 10 8 4 359 2 -0 357 354 353 352
143 145 144 138 137 137 130 128 121 109 100 91 69 44 27 33 61 34 51 92 27 332 64 26 8 355 357 17 15 13 12 14 10 7 2 5 3 358 358 357 355 352 350 349
147 144 147 149 153 141 140 143 129 125 119 100 92 80 53 46 34 21 24 17 59 4 30 39 14 4 16 15 14 13 9 11 6 5 3 5 6 4 358 355 349 347 347 346
151 154 153 159 147 153 148 165 142 143 127 115 97 80 68 54 39 30 30 25 37 33 29 14 8 8 8 10 5 11 9 11 6 6 1 1 1 359 352 353 348 346 345 345
157 154 156 148 159 156 163 150 146 142 136 114 109 98 77 56 62 22 37 29 28 29 17 350 2 5 356 359 5 7 4 3 9 6 356 355 354 341 339 340 339 337 341 343